Lid_Strength_Index
3 8 7 10 13 14 16 15 13 11 9 9 10 7 8 7 9 11 3 1 1 1 -0 -0 -1 -1 -1 -1 -1 -1 -1 -1 -1 -1 -1 -1 -1 -1 -1 -1 -1 -1 -1 -1 -1 -2 -2 -2 -2
6 7 9 12 15 17 16 13 13 12 9 9 10 8 8 8 5 4 4 1 0 0 -0 -0 -1 -1 -1 -1 -1 -1 -1 -1 -1 -1 -1 -1 -1 -1 -1 -1 -1 -1 -1 -1 -2 -2 -2 -3 -2
8 7 10 14 16 16 15 13 13 10 8 8 8 6 7 7 5 4 2 1 0 0 0 -0 -1 -1 -1 -1 -1 -1 -1 -1 -1 -1 -1 -1 -1 -1 -1 -1 -1 -1 -1 -2 -2 -2 -3 -3 -2
9 9 11 14 15 13 13 12 11 11 9 7 7 8 6 5 4 2 1 0 1 0 -0 -0 -1 -1 -1 -1 -1 -1 -1 -1 -1 -1 -1 -1 -1 -1 -1 -1 -1 -2 -2 -2 -2 -2 -2 -2 -3
8 11 14 16 14 12 11 11 10 11 11 8 7 7 7 6 2 1 1 1 1 1 0 -0 -1 -1 -1 -1 -1 -1 -1 -1 -1 -1 -1 -1 -1 -1 -1 -1 -1 -2 -2 -2 -2 -2 -2 -2 -3
9 11 15 16 14 11 10 10 11 10 10 9 8 8 8 6 3 2 1 1 0 1 0 -0 -1 -1 -1 -1 -1 -1 -1 -1 -1 -1 -1 -1 -1 -1 -1 -1 -1 -2 -2 -2 -2 -2 -2 -2 -2
10 12 14 14 13 11 9 9 11 11 11 11 8 8 7 6 6 2 1 1 1 0 0 -0 -0 -0 -1 -1 -1 -1 -1 -1 -1 -1 -1 -1 -1 -1 -1 -1 -1 -2 -2 -2 -2 -2 -2 -2 -2
10 11 13 12 12 11 8 9 10 11 11 8 8 10 9 7 4 2 2 2 1 1 0 0 -0 -0 0 -0 -1 -1 -1 -1 -1 -1 -1 -1 -1 -1 -1 -1 -1 -2 -2 -2 -2 -2 -2 -2 -2
9 14 15 13 11 10 8 10 9 8 10 10 9 8 7 5 2 2 3 2 2 1 1 0 0 -0 -0 -0 -0 -1 -1 -1 -1 -1 -1 -1 -0 -0 -1 -1 -1 -2 -2 -2 -2 -2 -2 -2 -2
11 15 13 10 10 10 9 10 9 9 9 10 10 7 6 6 6 4 4 4 3 2 1 1 0 1 0 -0 -0 -0 -0 -0 -0 -0 -0 -0 -0 -0 -1 -1 -1 -2 -2 -2 -2 -2 -2 -1 -1
12 13 11 10 9 9 9 9 8 10 10 9 9 8 7 7 8 4 4 3 3 2 1 1 0 0 0 0 -0 -0 -0 -0 -0 -1 -0 -0 -0 -0 -0 -0 -0 -0 -1 -0 -1 -1 -1 -1 -1
14 11 10 10 9 10 10 8 9 9 8 8 7 7 6 7 7 7 4 3 3 2 2 1 0 0 0 0 -0 -0 -0 -0 -0 -0 0 -0 0 0 -0 -0 -0 -0 -0 -0 -1 -1 -1 -1 -1
14 13 11 10 11 11 10 10 10 10 8 8 8 8 7 6 7 7 7 6 3 3 2 1 0 0 0 0 0 0 0 0 -0 -0 0 0 1 1 0 0 -0 -0 -0 -0 -0 -0 0 0 -0
12 12 11 11 11 11 11 11 11 9 8 7 9 9 8 7 7 7 7 6 3 2 2 1 1 0 0 0 0 0 0 -0 0 0 0 0 0 1 1 0 -0 -0 -0 -0 -0 0 1 2 1
12 14 12 12 11 11 11 12 12 9 8 9 9 9 9 9 8 7 6 4 2 2 2 2 1 0 1 1 0 0 0 0 0 0 0 -0 0 1 1 1 0 -0 -0 0 1 1 1 2 2
14 15 16 13 12 10 11 14 10 9 10 10 9 9 9 9 8 7 6 5 2 3 2 1 1 1 1 1 0 0 0 -0 0 1 1 0 1 1 2 2 1 -0 -0 -0 1 1 1 2 2
15 18 17 14 11 11 12 14 10 9 9 10 9 9 9 9 9 8 7 5 4 3 3 3 2 2 2 1 0 0 1 1 0 1 1 1 0 1 2 2 1 -1 -0 -0 0 1 1 2 3
17 16 15 15 12 12 13 13 11 10 11 10 10 9 9 9 8 7 7 6 5 4 3 3 2 1 1 2 2 1 1 1 1 1 0 0 0 -0 0 0 1 -0 0 0 0 1 2 2 2
14 15 15 13 10 12 13 13 12 10 11 10 10 9 9 8 7 6 6 4 4 4 4 4 4 3 2 2 2 2 2 1 1 0 -0 -0 -0 -0 0 0 0 0 1 1 1 1 2 2 2
13 15 15 13 11 13 13 13 12 11 10 10 9 9 9 9 8 7 6 4 3 3 3 3 3 3 2 1 1 2 1 1 1 0 0 -0 -0 -0 0 0 1 0 1 1 1 2 2 2 2
14 15 15 14 12 13 14 15 13 11 11 9 9 9 8 8 8 8 7 7 4 3 3 2 2 3 4 2 4 5 4 3 3 2 1 1 0 -0 -0 0 1 1 1 1 1 2 2 3 2
16 12 12 14 15 18 14 18 15 13 12 10 9 9 9 9 8 8 8 7 6 4 2 2 2 2 3 4 4 4 4 5 4 3 2 1 1 1 1 0 0 0 1 2 2 1 1 2 3
14 12 13 13 16 18 17 19 17 14 14 12 11 10 9 9 9 8 8 7 7 4 3 2 3 4 5 4 4 5 6 5 5 4 4 3 2 1 1 1 0 1 1 1 1 1 1 1 2
11 13 14 16 18 21 17 18 17 16 14 12 10 10 9 8 8 7 7 7 6 6 3 2 3 4 4 5 7 7 7 7 6 5 4 4 3 1 0 0 0 1 0 1 1 1 1 1 1
13 16 20 20 20 19 15 17 16 13 11 10 11 9 8 8 9 8 7 6 5 5 3 2 2 4 4 3 2 3 3 2 2 3 3 2 2 2 2 0 1 0 0 0 0 1 1 1 1
15 15 18 21 21 18 16 19 15 11 10 9 8 9 8 8 7 7 7 6 5 4 3 3 3 5 4 3 2 2 2 2 2 2 2 2 2 2 1 1 1 0 0 0 0 1 1 1 1
14 17 14 17 17 22 18 15 12 10 10 10 10 9 9 8 7 7 6 6 6 5 4 4 4 4 3 2 2 2 2 2 2 2 2 2 1 1 1 1 1 0 0 0 0 1 1 1 1
12 12 16 16 21 22 19 17 16 13 12 10 10 9 8 7 7 7 6 6 6 6 6 6 5 4 3 3 2 2 2 2 1 2 2 2 2 1 1 1 1 1 0 0 0 1 1 1 1
14 15 14 14 16 21 22 19 13 12 11 11 10 9 8 8 7 6 6 5 5 6 6 5 4 3 3 3 2 2 2 1 1 2 2 2 1 1 1 1 1 1 1 1 1 1 1 1 1
13 14 14 17 19 17 18 18 10 10 10 10 9 8 7 6 6 6 5 5 5 4 5 5 5 4 3 3 3 2 2 2 2 2 2 1 1 2 1 1 1 1 1 1 1 1 1 1 2